SCP
0 -0 -0 -0 -0 -0 0 0 0 0 0 0 0 0 0 0 0 0 0 0 0 0 0 0 0 0 0 0 0 0 0 0 0 0 0 0 0 0 0 0 0 0 0 0
0 -0 -0 -0 -0 -0 0 0 0 0 0 0 0 0 0 0 0 0 0 0 0 0 0 0 0 0 0 0 0 0 0 0 0 0 0 0 0 0 0 0 0 0 0 0
0 0 -0 -0 -0 0 0 0 0 0 0 0 0 0 0 0 0 0 0 0 0 0 0 0 0 0 0 0 0 0 0 0 0 0 0 0 0 0 0 0 0 0 0 0
0 0 0 0 0 0 0 0 0 0 0 0 0 0 0 0 0 0 0 0 0 0 0 0 0 0 0 0 0 0 0 0 0 0 0 0 0 0 0 0 0 0 0 0
0 0 0 0 0 0 0 0 0 0 0 0 0 0 0 0 0 0 0 0 0 0 0 0 0 0 0 0 0 0 0 0 0 0 0 0 0 0 0 0 0 0 0 0
0 0 0 0 0 0 0 0 0 0 0 0 0 0 0 0 0 0 0 0 0 0 0 0 0 0 0 0 0 0 0 0 0 0 0 0 0 0 0 0 0 0 0 0
0 0 0 0 0 0 0 0 0 0 0 0 0 0 0 0 0 0 0 0 0 0 0 0 0 0 0 0 0 0 0 0 0 0 0 0 0 0 0 0 0 0 0 0
0 0 0 0 0 0 0 0 0 0 0 0 0 0 0 0 0 0 0 0 0 0 0 0 0 0 0 0 0 0 0 0 0 0 0 0 0 0 0 0 0 0 0 0
0 0 0 0 0 0 0 0 0 0 0 0 0 0 0 0 0 0 0 0 0 0 0 0 0 0 0 0 0 0 0 0 0 0 0 0 0 0 0 0 0 0 0 0
0 0 0 0 0 0 0 0 0 0 0 0 0 0 0 0 0 0 0 0 0 0 0 0 0 0 0 0 0 0 0 0 0 0 0 0 0 0 0 0 0 0 0 0
0 0 0 0 0 0 0 0 0 -0 0 0 0 0 0 0 0 0 0 0 0 0 0 0 0 -0 0 0 0 0 0 0 0 0 0 0 0 0 0 0 0 0 0 0
0 -0 0 0 0 0 0 0 0 0 0 0 0 -0 -0 0 0 0 0 0 0 0 0 0 0 0 0 0 0 0 0 0 0 0 0 0 0 0 0 0 0 0 0 0
0 -0 0 0 0 0 0 0 0 0 -0 0 0 0 0 -0 -0 0 0 0 0 -0 -0 0 0 0 0 0 0 0 0 0 0 0 0 0 0 0 0 0 0 0 0 0
0 0 0 0 0 0 0 0 0 0 0 0 0 0 0 0 0 -0 0 -0 -0 0 0 0 0 0 0 0 0 0 0 0 0 0 0 0 0 0 0 0 0 0 0 0
0 0 0 0 0 0 0 0 0 0 0 0 0 0 0 -0 -0 0 0 0 0 0 0 0 0 0 0 0 0 0 0 0 0 0 0 0 0 0 0 0 0 0 0 0
0 0 0 0 0 0 0 0 0 0 0 0 0 0 0 0 0 0 0 0 0 0 0 0 0 0 0 0 0 0 0 0 0 0 0 0 0 0 0 0 0 0 0 0
0 0 0 0 0 0 0 0 0 0 0 0 0 0 0 0 0 0 0 0 0 0 0 0 0 0 0 0 0 0 0 0 0 0 0 0 0 0 0 0 0 0 0 0
0 0 0 0 0 0 0 0 0 0 0 0 0 0 0 0 0 0 0 0 0 0 0 0 0 0 0 0 0 0 0 0 0 0 0 0 0 0 0 0 0 0 0 0
0 0 0 0 0 0 0 0 0 0 0 0 0 0 0 0 0 0 0 0 0 0 0 0 0 0 0 0 0 0 0 0 0 0 0 -0 0 0 0 0 0 0 0 0
0 0 0 0 0 0 0 0 0 0 0 0 0 0 0 0 0 0 0 0 0 0 0 0 0 0 0 0 0 0 0 0 -0 -0 -0 0 0 0 0 0 0 0 0 0
0 0 0 0 0 0 0 0 0 0 0 0 0 0 0 0 0 0 0 0 0 0 0 0 0 0 0 0 0 0 0 -0 0 0 0 0 0 0 0 0 0 0 0 0
0 0 0 0 0 0 0 0 0 0 0 0 0 0 0 0 0 0 0 0 0 0 0 0 0 0 0 0 0 0 -0 -0 0 0 0 0 0 0 0 0 0 0 0 -0
0 0 0 0 0 0 0 0 0 0 0 0 0 0 0 0 0 0 0 0 0 0 0 0 0 0 0 0 0 -0 -0 -0 0 0 0 -0 0 0 0 0 0 0 -0 0
0 0 0 0 0 0 0 0 0 0 0 0 0 0 0 0 0 0 0 0 0 0 0 0 0 0 0 0 0 -0 -0 0 0 -0 -0 -0 0 0 0 0 0 0 -0 0
0 0 0 0 0 0 0 0 0 0 0 0 0 0 0 0 0 0 0 0 0 0 0 0 0 0 0 0 0 -0 -0 0 0 0 0 0 0 -0 -0 0 0 0 0 -0
0 0 0 0 0 0 0 0 0 0 0 0 0 0 0 0 0 0 0 0 0 0 0 0 0 0 0 0 0 0 -0 0 0 0 0 0 -0 -0 -0 0 -0 0 0 0
0 0 0 0 0 0 0 0 0 0 0 0 0 0 0 0 0 0 0 0 0 0 0 0 0 0 0 0 0 0 0 0 0 0 0 0 -0 -0 -0 -0 0 -0 0 0
Wind_Speed_500mb
43 46 48 48 50 45 26 8 6 16 11 9 1 1 5 5 8 9 4 6 3 3 2 1 2 5 9 8 4 7 7 9 15 14 2 4 7 12 16 13 20 21 21 18
41 45 46 46 47 49 38 11 8 14 11 5 7 6 5 4 7 9 8 3 5 1 5 4 4 8 9 9 4 5 3 3 16 4 14 15 7 17 13 13 15 20 18 10
40 43 45 43 38 37 28 9 2 9 15 7 5 3 2 4 10 8 4 5 3 8 8 1 9 9 7 7 8 6 2 8 17 19 24 12 20 23 15 15 15 20 17 24
39 42 42 41 33 29 19 13 7 5 4 11 6 2 2 3 2 9 10 6 6 3 7 6 6 4 10 8 4 0 6 18 20 24 19 18 23 21 20 21 12 13 21 18
39 42 43 41 33 22 16 8 7 3 5 4 4 1 5 4 5 13 8 14 13 6 13 10 6 2 6 5 2 8 4 21 19 26 27 12 21 9 15 5 7 13 11 9
36 39 40 38 32 19 10 9 9 4 3 1 9 5 6 9 0 9 13 6 9 18 15 11 11 7 5 8 12 16 12 17 18 27 14 16 25 6 4 2 5 13 15 15
37 37 37 34 27 15 7 6 5 7 5 3 6 5 3 9 11 6 11 11 2 7 11 7 7 5 2 2 5 6 12 14 16 18 19 21 12 12 12 18 12 6 7 16
37 35 32 28 20 10 1 1 4 5 1 2 7 3 2 3 6 8 11 15 9 8 5 10 10 12 10 10 5 8 2 5 5 6 8 7 7 6 4 9 3 8 11 12
35 33 28 23 16 6 4 4 2 3 10 7 1 3 3 4 2 10 6 9 9 7 8 8 13 11 11 6 10 2 2 7 7 6 9 5 7 7 4 10 5 12 12 16
32 30 25 18 12 5 8 9 6 2 6 4 4 2 6 2 3 4 1 8 4 6 9 13 11 6 5 6 7 5 4 4 3 4 2 4 6 4 6 8 9 11 13 17
29 27 23 16 9 6 13 10 10 6 3 2 2 4 3 0 2 5 8 8 5 9 8 6 5 7 4 7 4 9 7 7 4 3 6 3 7 5 11 11 10 9 11 16
28 26 20 16 9 9 14 7 12 9 4 3 8 7 7 5 4 6 6 5 3 8 6 3 4 8 6 7 2 2 4 8 7 9 8 8 7 11 11 7 9 10 11 13
25 24 17 15 12 13 19 17 11 4 6 11 10 9 9 9 8 3 8 2 2 1 3 8 5 8 6 5 2 7 6 2 7 8 8 9 11 13 13 14 13 11 12 11
20 23 13 14 13 16 21 21 12 9 3 8 5 2 3 14 11 14 6 3 4 3 5 9 7 7 2 3 6 11 11 3 9 5 9 10 11 12 15 15 13 13 12 12
16 23 12 13 15 18 22 22 14 14 3 6 2 5 8 5 11 12 10 5 2 5 7 11 8 5 8 5 7 13 6 7 6 6 6 6 13 18 15 11 10 10 10 14
16 18 6 12 18 24 26 7 11 11 6 6 4 2 6 8 14 13 9 6 5 6 7 5 5 2 7 5 4 10 6 5 5 8 13 18 26 20 14 12 10 10 13 16
15 7 15 21 27 32 8 0 6 24 11 5 6 6 7 12 15 14 12 8 7 9 4 8 6 8 9 7 9 16 10 15 19 23 25 20 18 11 14 12 12 16 16 18
14 18 25 24 26 23 11 13 6 24 12 5 6 3 10 17 18 17 14 11 7 9 6 5 12 7 10 6 7 12 17 23 22 11 8 14 21 21 17 12 12 15 17 19
22 32 30 19 16 14 10 5 7 16 4 5 6 6 5 19 13 9 13 9 9 6 9 7 7 8 10 1 12 19 26 17 22 19 20 22 20 19 14 11 12 16 22 19
36 33 8 7 12 11 12 3 4 6 9 10 11 7 6 17 19 20 11 11 6 6 7 5 9 9 5 5 7 17 26 22 25 23 18 18 18 16 13 9 14 19 23 16
24 8 5 12 19 11 7 7 8 9 9 14 16 17 10 15 17 11 10 4 5 6 9 6 8 6 11 4 10 15 26 26 19 11 11 12 12 15 15 15 21 25 21 14
14 11 17 23 7 6 8 7 7 11 8 13 21 24 17 14 9 11 12 6 6 6 10 7 6 9 5 5 13 26 28 26 18 13 16 14 16 16 16 22 27 26 18 11
23 6 8 6 6 4 10 12 8 8 11 11 14 19 25 12 13 5 10 9 8 6 8 6 4 11 11 16 25 30 27 23 18 17 17 17 17 17 22 29 30 23 14 9
7 7 5 9 8 10 11 15 8 9 9 8 19 28 18 11 14 7 7 4 5 8 8 8 14 13 19 24 27 30 27 23 19 18 17 17 17 22 28 32 27 20 14 8
7 5 9 12 15 14 13 15 17 15 12 15 23 12 12 17 7 9 6 9 9 7 6 11 10 19 27 29 30 29 26 21 18 17 16 16 20 28 32 30 24 18 13 10
5 7 6 13 17 18 18 19 21 16 16 21 18 2 5 8 7 13 12 6 6 6 8 8 9 26 30 32 30 26 23 19 18 16 17 19 23 29 33 27 21 18 8 5
7 8 13 15 18 19 15 12 6 9 20 19 8 10 7 7 10 12 9 6 9 9 8 7 15 31 34 32 30 27 23 19 17 15 17 20 24 30 31 26 20 13 4 2
Wind_Direction_500mb
356 357 359 359 0 4 18 53 216 350 156 211 309 184 27 350 336 347 294 281 308 313 70 19 158 136 49 19 341 345 53 311 299 337 36 306 342 353 335 323 312 310 298 290
354 357 358 360 4 7 11 8 347 349 170 244 179 136 131 51 11 23 344 253 341 333 153 198 181 114 64 34 17 16 55 283 304 226 167 194 324 338 308 300 280 282 299 323
349 352 356 358 2 7 9 355 279 35 53 65 324 216 118 177 44 66 19 1 218 179 155 34 164 136 67 60 75 70 312 281 282 294 328 334 300 319 328 289 285 312 329 343
344 348 350 355 360 8 15 7 58 353 34 62 53 240 332 231 44 4 20 116 45 259 177 152 122 123 144 126 114 196 289 290 301 288 295 290 299 315 315 299 326 290 351 344
341 344 347 352 356 6 33 5 339 351 73 334 215 189 66 36 62 355 55 83 60 73 88 28 112 24 14 347 147 300 255 282 287 281 275 279 290 322 287 285 324 287 302 359
336 340 343 347 355 13 45 20 8 330 69 199 242 59 58 41 356 65 56 36 103 87 53 21 20 2 318 314 302 301 288 282 272 278 303 297 274 131 311 276 357 336 342 19
326 330 336 341 350 6 44 17 7 283 131 272 51 73 56 45 44 64 54 36 60 24 323 290 243 242 230 148 43 270 285 276 276 279 286 277 68 55 359 346 355 3 22 1
319 325 329 333 340 338 10 33 36 325 213 16 147 67 17 113 97 82 67 50 19 347 301 278 291 219 204 170 41 64 270 273 255 261 289 132 84 320 127 307 49 55 10 355
314 320 323 325 327 314 195 206 178 353 302 90 346 260 346 276 216 174 89 36 20 356 298 271 271 285 334 239 181 136 110 244 247 263 274 321 95 136 223 305 174 44 1 3
310 314 314 317 315 284 196 203 187 63 283 96 13 19 7 328 229 311 124 356 311 339 269 267 274 255 319 257 286 336 305 283 275 129 191 209 52 117 276 274 43 47 20 2
306 306 305 301 292 247 191 204 205 146 263 116 85 52 45 82 336 307 43 240 153 232 250 271 154 267 108 262 20 334 333 324 360 300 239 121 48 183 316 59 75 48 19 8
305 306 300 285 256 216 192 161 204 199 223 305 224 241 252 268 340 338 34 32 336 8 272 227 290 220 214 354 322 153 315 8 338 6 18 93 68 69 89 75 79 40 25 16
302 305 296 271 236 211 190 184 180 173 263 257 242 213 247 237 210 158 308 114 18 250 325 334 351 273 307 272 17 295 144 29 306 298 121 114 119 108 101 98 87 61 43 51
302 311 291 260 221 202 182 160 178 168 242 270 138 220 234 231 221 186 186 287 300 261 276 267 279 270 280 358 5 282 37 255 329 293 119 132 136 132 126 105 84 62 64 82
298 309 282 236 203 185 172 167 168 180 207 333 285 277 216 223 190 184 176 157 281 257 223 224 233 294 258 209 287 264 134 344 322 31 39 15 116 147 134 108 82 69 91 101
295 302 247 192 170 149 131 182 223 193 184 273 256 285 183 186 178 180 193 217 292 285 277 247 237 299 269 253 267 96 105 73 49 85 79 95 127 132 126 111 88 91 114 123
291 272 161 156 148 147 133 40 203 187 173 243 258 201 188 173 171 191 203 230 273 284 277 237 267 193 229 269 261 127 119 119 119 117 106 110 137 148 133 113 99 110 125 131
284 150 139 136 150 140 103 60 64 164 186 228 268 198 197 183 193 196 207 226 227 209 286 225 236 172 228 259 129 135 141 135 131 127 90 112 141 135 133 118 115 125 132 136
140 130 133 128 153 175 196 89 59 178 204 264 222 249 153 175 184 172 170 223 226 141 240 214 230 193 223 119 157 161 159 158 152 129 123 128 139 147 142 131 135 140 143 137
132 134 142 166 181 179 168 185 203 220 218 231 251 205 211 196 182 190 176 193 254 229 154 149 235 238 151 113 133 163 165 152 147 139 149 156 157 160 153 146 146 147 147 138
140 131 139 153 151 143 188 212 220 192 223 211 230 217 206 200 205 177 226 178 168 244 131 248 191 207 134 177 186 159 164 155 151 137 154 159 169 164 157 150 148 148 144 139
157 144 129 145 170 189 223 205 184 226 237 192 208 198 206 164 196 223 176 232 185 242 135 237 222 106 107 133 157 161 157 155 144 149 127 128 139 148 149 151 147 146 144 141
145 142 154 187 163 214 215 193 210 226 191 202 201 187 176 165 190 212 202 216 210 126 211 219 82 109 118 132 139 143 145 139 135 122 121 126 130 135 143 147 148 144 135 119
148 164 170 215 186 233 215 225 253 212 242 219 200 176 195 169 170 165 226 124 223 223 218 201 112 133 137 137 143 141 138 135 130 127 127 129 129 138 143 148 148 142 129 103
179 215 215 219 238 254 259 259 253 242 244 207 194 182 221 170 151 200 143 187 230 229 194 99 108 147 145 141 142 140 136 133 129 130 132 135 140 144 147 151 151 147 132 111
189 218 253 266 264 267 252 239 240 219 216 191 195 128 194 207 210 181 187 193 233 120 92 104 131 156 150 144 142 138 135 132 131 130 136 139 146 153 155 154 157 153 137 117
220 227 234 243 275 280 284 289 241 221 203 201 154 180 188 236 205 166 169 157 86 99 73 71 148 158 153 149 145 141 138 130 130 131 134 143 150 157 159 161 167 165 172 258
Wind_Speed_850mb
43 46 48 48 50 45 26 8 6 16 11 9 1 1 5 5 8 9 4 6 3 3 2 1 2 5 9 8 4 7 7 9 15 14 2 4 7 12 16 13 20 21 21 18
41 45 46 46 47 49 38 11 8 14 11 5 7 6 5 4 7 9 8 3 5 1 5 4 4 8 9 9 4 5 3 3 16 4 14 15 7 17 13 13 15 20 18 10
40 43 45 43 38 37 28 9 2 9 15 7 5 3 2 4 10 8 4 5 3 8 8 1 9 9 7 7 8 6 2 8 17 19 24 12 20 23 15 15 15 20 17 24
39 42 42 41 33 29 19 13 7 5 4 11 6 2 2 3 2 9 10 6 6 3 7 6 6 4 10 8 4 0 6 18 20 24 19 18 23 21 20 21 12 13 21 18
39 42 43 41 33 22 16 8 7 3 5 4 4 1 5 4 5 13 8 14 13 6 13 10 6 2 6 5 2 8 4 21 19 26 27 12 21 9 15 5 7 13 11 9
36 39 40 38 32 19 10 9 9 4 3 1 9 5 6 9 0 9 13 6 9 18 15 11 11 7 5 8 12 16 12 17 18 27 14 16 25 6 4 2 5 13 15 15
37 37 37 34 27 15 7 6 5 7 5 3 6 5 3 9 11 6 11 11 2 7 11 7 7 5 2 2 5 6 12 14 16 18 19 21 12 12 12 18 12 6 7 16
37 35 32 28 20 10 1 1 4 5 1 2 7 3 2 3 6 8 11 15 9 8 5 10 10 12 10 10 5 8 2 5 5 6 8 7 7 6 4 9 3 8 11 12
35 33 28 23 16 6 4 4 2 3 10 7 1 3 3 4 2 10 6 9 9 7 8 8 13 11 11 6 10 2 2 7 7 6 9 5 7 7 4 10 5 12 12 16
32 30 25 18 12 5 8 9 6 2 6 4 4 2 6 2 3 4 1 8 4 6 9 13 11 6 5 6 7 5 4 4 3 4 2 4 6 4 6 8 9 11 13 17
29 27 23 16 9 6 13 10 10 6 3 2 2 4 3 0 2 5 8 8 5 9 8 6 5 7 4 7 4 9 7 7 4 3 6 3 7 5 11 11 10 9 11 16
28 26 20 16 9 9 14 7 12 9 4 3 8 7 7 5 4 6 6 5 3 8 6 3 4 8 6 7 2 2 4 8 7 9 8 8 7 11 11 7 9 10 11 13
25 24 17 15 12 13 19 17 11 4 6 11 10 9 9 9 8 3 8 2 2 1 3 8 5 8 6 5 2 7 6 2 7 8 8 9 11 13 13 14 13 11 12 11
20 23 13 14 13 16 21 21 12 9 3 8 5 2 3 14 11 14 6 3 4 3 5 9 7 7 2 3 6 11 11 3 9 5 9 10 11 12 15 15 13 13 12 12
16 23 12 13 15 18 22 22 14 14 3 6 2 5 8 5 11 12 10 5 2 5 7 11 8 5 8 5 7 13 6 7 6 6 6 6 13 18 15 11 10 10 10 14
16 18 6 12 18 24 26 7 11 11 6 6 4 2 6 8 14 13 9 6 5 6 7 5 5 2 7 5 4 10 6 5 5 8 13 18 26 20 14 12 10 10 13 16
15 7 15 21 27 32 8 0 6 24 11 5 6 6 7 12 15 14 12 8 7 9 4 8 6 8 9 7 9 16 10 15 19 23 25 20 18 11 14 12 12 16 16 18
14 18 25 24 26 23 11 13 6 24 12 5 6 3 10 17 18 17 14 11 7 9 6 5 12 7 10 6 7 12 17 23 22 11 8 14 21 21 17 12 12 15 17 19
22 32 30 19 16 14 10 5 7 16 4 5 6 6 5 19 13 9 13 9 9 6 9 7 7 8 10 1 12 19 26 17 22 19 20 22 20 19 14 11 12 16 22 19
36 33 8 7 12 11 12 3 4 6 9 10 11 7 6 17 19 20 11 11 6 6 7 5 9 9 5 5 7 17 26 22 25 23 18 18 18 16 13 9 14 19 23 16
24 8 5 12 19 11 7 7 8 9 9 14 16 17 10 15 17 11 10 4 5 6 9 6 8 6 11 4 10 15 26 26 19 11 11 12 12 15 15 15 21 25 21 14
14 11 17 23 7 6 8 7 7 11 8 13 21 24 17 14 9 11 12 6 6 6 10 7 6 9 5 5 13 26 28 26 18 13 16 14 16 16 16 22 27 26 18 11
23 6 8 6 6 4 10 12 8 8 11 11 14 19 25 12 13 5 10 9 8 6 8 6 4 11 11 16 25 30 27 23 18 17 17 17 17 17 22 29 30 23 14 9
7 7 5 9 8 10 11 15 8 9 9 8 19 28 18 11 14 7 7 4 5 8 8 8 14 13 19 24 27 30 27 23 19 18 17 17 17 22 28 32 27 20 14 8
7 5 9 12 15 14 13 15 17 15 12 15 23 12 12 17 7 9 6 9 9 7 6 11 10 19 27 29 30 29 26 21 18 17 16 16 20 28 32 30 24 18 13 10
5 7 6 13 17 18 18 19 21 16 16 21 18 2 5 8 7 13 12 6 6 6 8 8 9 26 30 32 30 26 23 19 18 16 17 19 23 29 33 27 21 18 8 5
7 8 13 15 18 19 15 12 6 9 20 19 8 10 7 7 10 12 9 6 9 9 8 7 15 31 34 32 30 27 23 19 17 15 17 20 24 30 31 26 20 13 4 2
Wind_Direction_850mb
356 357 359 359 0 4 18 53 216 350 156 211 309 184 27 350 336 347 294 281 308 313 70 19 158 136 49 19 341 345 53 311 299 337 36 306 342 353 335 323 312 310 298 290
354 357 358 360 4 7 11 8 347 349 170 244 179 136 131 51 11 23 344 253 341 333 153 198 181 114 64 34 17 16 55 283 304 226 167 194 324 338 308 300 280 282 299 323
349 352 356 358 2 7 9 355 279 35 53 65 324 216 118 177 44 66 19 1 218 179 155 34 164 136 67 60 75 70 312 281 282 294 328 334 300 319 328 289 285 312 329 343
344 348 350 355 360 8 15 7 58 353 34 62 53 240 332 231 44 4 20 116 45 259 177 152 122 123 144 126 114 196 289 290 301 288 295 290 299 315 315 299 326 290 351 344
341 344 347 352 356 6 33 5 339 351 73 334 215 189 66 36 62 355 55 83 60 73 88 28 112 24 14 347 147 300 255 282 287 281 275 279 290 322 287 285 324 287 302 359
336 340 343 347 355 13 45 20 8 330 69 199 242 59 58 41 356 65 56 36 103 87 53 21 20 2 318 314 302 301 288 282 272 278 303 297 274 131 311 276 357 336 342 19
326 330 336 341 350 6 44 17 7 283 131 272 51 73 56 45 44 64 54 36 60 24 323 290 243 242 230 148 43 270 285 276 276 279 286 277 68 55 359 346 355 3 22 1
319 325 329 333 340 338 10 33 36 325 213 16 147 67 17 113 97 82 67 50 19 347 301 278 291 219 204 170 41 64 270 273 255 261 289 132 84 320 127 307 49 55 10 355
314 320 323 325 327 314 195 206 178 353 302 90 346 260 346 276 216 174 89 36 20 356 298 271 271 285 334 239 181 136 110 244 247 263 274 321 95 136 223 305 174 44 1 3
310 314 314 317 315 284 196 203 187 63 283 96 13 19 7 328 229 311 124 356 311 339 269 267 274 255 319 257 286 336 305 283 275 129 191 209 52 117 276 274 43 47 20 2
306 306 305 301 292 247 191 204 205 146 263 116 85 52 45 82 336 307 43 240 153 232 250 271 154 267 108 262 20 334 333 324 360 300 239 121 48 183 316 59 75 48 19 8
305 306 300 285 256 216 192 161 204 199 223 305 224 241 252 268 340 338 34 32 336 8 272 227 290 220 214 354 322 153 315 8 338 6 18 93 68 69 89 75 79 40 25 16
302 305 296 271 236 211 190 184 180 173 263 257 242 213 247 237 210 158 308 114 18 250 325 334 351 273 307 272 17 295 144 29 306 298 121 114 119 108 101 98 87 61 43 51
302 311 291 260 221 202 182 160 178 168 242 270 138 220 234 231 221 186 186 287 300 261 276 267 279 270 280 358 5 282 37 255 329 293 119 132 136 132 126 105 84 62 64 82
298 309 282 236 203 185 172 167 168 180 207 333 285 277 216 223 190 184 176 157 281 257 223 224 233 294 258 209 287 264 134 344 322 31 39 15 116 147 134 108 82 69 91 101
295 302 247 192 170 149 131 182 223 193 184 273 256 285 183 186 178 180 193 217 292 285 277 247 237 299 269 253 267 96 105 73 49 85 79 95 127 132 126 111 88 91 114 123
291 272 161 156 148 147 133 40 203 187 173 243 258 201 188 173 171 191 203 230 273 284 277 237 267 193 229 269 261 127 119 119 119 117 106 110 137 148 133 113 99 110 125 131
284 150 139 136 150 140 103 60 64 164 186 228 268 198 197 183 193 196 207 226 227 209 286 225 236 172 228 259 129 135 141 135 131 127 90 112 141 135 133 118 115 125 132 136
140 130 133 128 153 175 196 89 59 178 204 264 222 249 153 175 184 172 170 223 226 141 240 214 230 193 223 119 157 161 159 158 152 129 123 128 139 147 142 131 135 140 143 137
132 134 142 166 181 179 168 185 203 220 218 231 251 205 211 196 182 190 176 193 254 229 154 149 235 238 151 113 133 163 165 152 147 139 149 156 157 160 153 146 146 147 147 138
140 131 139 153 151 143 188 212 220 192 223 211 230 217 206 200 205 177 226 178 168 244 131 248 191 207 134 177 186 159 164 155 151 137 154 159 169 164 157 150 148 148 144 139
157 144 129 145 170 189 223 205 184 226 237 192 208 198 206 164 196 223 176 232 185 242 135 237 222 106 107 133 157 161 157 155 144 149 127 128 139 148 149 151 147 146 144 141
145 142 154 187 163 214 215 193 210 226 191 202 201 187 176 165 190 212 202 216 210 126 211 219 82 109 118 132 139 143 145 139 135 122 121 126 130 135 143 147 148 144 135 119
148 164 170 215 186 233 215 225 253 212 242 219 200 176 195 169 170 165 226 124 223 223 218 201 112 133 137 137 143 141 138 135 130 127 127 129 129 138 143 148 148 142 129 103
179 215 215 219 238 254 259 259 253 242 244 207 194 182 221 170 151 200 143 187 230 229 194 99 108 147 145 141 142 140 136 133 129 130 132 135 140 144 147 151 151 147 132 111
189 218 253 266 264 267 252 239 240 219 216 191 195 128 194 207 210 181 187 193 233 120 92 104 131 156 150 144 142 138 135 132 131 130 136 139 146 153 155 154 157 153 137 117
220 227 234 243 275 280 284 289 241 221 203 201 154 180 188 236 205 166 169 157 86 99 73 71 148 158 153 149 145 141 138 130 130 131 134 143 150 157 159 161 167 165 172 258